Regional Weather Roundup
Issued by NWS Boston, MA

Home | Current Version | Previous Version | Text Only | Print | Product List | Glossary On
Versions: 1 2 3 4 5 6 7 8 9 10 11 12 13 14 15 16 17 18 19 20 21 22 23 24 25 26 27 28 29 30 31 32 33 34 35 36 37 38 39 40 41 42 43 44 45 46 47 48 49 50
000
ASUS41 KBOX 271410
RWRBOX

REGIONAL WEATHER ROUNDUP
NATIONAL WEATHER SERVICE TAUNTON MA
900 AM EST THU NOV 27 2014

NOTE:  "FAIR" INDICATES FEW OR NO CLOUDS BELOW 12,000 FEET WITH NO
SIGNIFICANT WEATHER AND/OR OBSTRUCTIONS TO VISIBILITY.  THE FOLLOWING
OBSERVATION LOCATIONS DO NOT REPORT PRESENT WEATHER...PROVINCETOWN...
SMITHFIELD...BLOCK ISLAND...KEENE...AND OXFORD.

MAZALL-271500-
EASTERN MASSACHUSETTS

CITY           SKY/WX    TMP DP  RH WIND       PRES   REMARKS
BOSTON         PTSUNNY   35  30  82 NW9       29.93R WCI  28
BEVERLY        PTSUNNY   34  30  85 W5        29.91R WCI  30
LAWRENCE       PTSUNNY   33  29  85 NW6       29.93R WCI  28
BEDFORD        PTSUNNY   33  29  85 W6        29.92R WCI  28
BLUE HILL      NOT AVBL
NORWOOD        CLOUDY    35  31  85 W6        29.93R WCI  30
MARSHFIELD     CLOUDY   N/A N/A N/A W7        29.92R
PLYMOUTH       CLOUDY    35  33  92 W8        29.92R WCI  29
TAUNTON        CLOUDY    35  32  88 W5        29.93R WCI  31
NEW BEDFORD    CLOUDY    35  33  92 W8        29.93R WCI  29
$$

MAZALL-271500-
CAPE COD AND THE ISLANDS

CITY           SKY/WX    TMP DP  RH WIND       PRES   REMARKS
FALMOUTH       CLOUDY    36  34  93 W12       29.92R WCI  27
HYANNIS        LGT SNOW  35  33  92 W10       29.91R FOG     WCI  27
CHATHAM        CLOUDY    39  34  82 VRB3      29.91R
PROVINCETOWN   CLOUDY    39  30  70 N12       29.89R WCI  32
NANTUCKET      PTSUNNY   41  35  79 NW13      29.92R
MARTHAS VNYRD  CLOUDY    38  32  79 NW8       29.94R
$$

MAZALL-271500-
CENTRAL AND WESTERN MASSACHUSETTS

CITY           SKY/WX    TMP DP  RH WIND       PRES   REMARKS
WORCESTER      CLOUDY    30  27  88 W14       29.89R WCI  19
FITCHBURG      CLOUDY    34  28  79 NW7       29.92R WCI  28
ORANGE           N/A    N/A N/A N/A MISG      29.93R
SPRINGFIELD    SUNNY     28  26  92 CALM      29.95R
WESTFIELD      PTSUNNY   33  26  75 NW5       29.95R WCI  29
NORTH ADAMS    CLOUDY    28  25  88 W6        29.96R WCI  22
PITTSFIELD     CLOUDY    26  23  88 NW9       29.92R WCI  17
$$

RIZALL-271500-
RHODE ISLAND

CITY           SKY/WX    TMP DP  RH WIND       PRES   REMARKS
PROVIDENCE     PTSUNNY   35  30  82 W8        29.95R WCI  29
NEWPORT        CLOUDY    37  30  75 W5        29.94R
BLOCK ISLAND   CLOUDY    39  30  70 NW8       29.95R
SMITHFIELD     CLOUDY    34  25  69 W8        29.92R WCI  27
WESTERLY       CLOUDY    35  31  85 W3        29.97R
$$

CTZALL-271500-
CONNECTICUT

CITY           SKY/WX    TMP DP  RH WIND       PRES   REMARKS
BRADLEY INTL   PTSUNNY   33  27  78 CALM      29.96R
HARTFORD       CLOUDY    34  28  79 VRB5      29.97R WCI  30
BRIDGEPORT     CLOUDY    35  29  78 NW12      29.98R WCI  27
DANBURY        CLOUDY    32  24  72 NE6       29.98R WCI  26
GROTON         CLOUDY    35  31  85 NW8       29.97R WCI  29
NEW HAVEN      CLOUDY    37  29  72 NW8       29.98R WCI  31
CHESTER        LGT RAIN  32  30  93 NW3       29.96R
MERIDEN        CLOUDY    33  26  75 NW3       29.98R
WILLIMANTIC    CLOUDY    34  29  82 W5        29.96R WCI  30
OXFORD         CLOUDY    30  23  74 NW6       29.97R WCI  24
$$

MEZ002-015-021-024-NHZ003-005-008-011-012-014-VTZ005-008-271500-
NORTHERN NEW ENGLAND

CITY           SKY/WX    TMP DP  RH WIND       PRES   REMARKS
PORTLAND ME    MOSUNNY   33  26  75 NW14      29.88R WCI  23
BANGOR ME      PTSUNNY   29  24  82 N18       29.79R WCI  16
CONCORD NH       N/A     30  26  85 NW3       29.90R
MANCHESTER NH  PTSUNNY   32  27  81 NW5       29.90R WCI  27
NASHUA NH        N/A     33  30  89 CALM      29.92R
PORTSMOUTH NH  MOSUNNY   33  29  85 W6        29.88R WCI  28
JAFFREY NH       N/A     28  24  85 CALM      29.89R
KEENE NH         N/A    N/A N/A N/A MISG        N/A
BURLINGTON VT  CLOUDY    27  21  78 N8        30.01R WCI  19
MT. WASHINGTON DRFTSNOW  12  12 100 N36G43      N/A  VSB 1/16WCI -11
$$

NYZ052-076-271500-
EASTERN NEW YORK

CITY           SKY/WX    TMP DP  RH WIND       PRES   REMARKS
ALBANY         CLOUDY    31  26  82 NW8       30.01R WCI  23
NEW YORK CITY  CLOUDY    37  31  78 NW7       29.99R WCI  32
$$

ANZALL-271500-
MARINE OBSERVATIONS

STATION/POSITION TIME  TEMP    WIND        PRES    VSBY  WAVE
                       AIR SEA DIR/SP/G                  HT/PER
                 (UTC) (F)     (DEG/KT/KT) (MB)    (MI)  (FT/S)
BOSTON BUOY      1350   37 49  330/ 14/ 16 1012.6R        12/ 9
BUZZARDS BAY     1300          340/ 12/ 15 1013.8R
NANTUCKET SOUND  1350   38 47  290/ 14/ 17 1012.6R         3/ 4
MASS BAY-STELLWA 1304   38 50  340/ 16/ 19   N/A    1 7/8 11/11
ISLE OF SHOALS   1400   35     350/ 18/ 22 1011.6R
S OF BLOCK IS    1308      55                N/A           8/11
$$

......................KEY.........................
  SKY/WX - SKY CONDITION/PRESENT WEATHER
  TMP    - TEMPERATURE IN FAHRENHEIT
  DWPT   - DEWPOINT IN FAHRENHEIT
  RH     - RELATIVE HUMIDITY IN PERCENT
  WIND   - DIRECTION AND SPEED IN MPH
  PRES   - MEAN SEA LEVEL PRESSURE IN INCHES OF HG
  WCI    - WIND CHILL INDEX
  VSB    - VISIBILITY IN MILES
  HX     - HEAT INDEX
  TC     - TEMPERATURE IN CELSIUS
  VRB    - VARIABLE WIND DIRECTION
  N/A    - NOT AVAILABLE


USA.gov is the U.S. government's official web portal to all federal, state and local government web resources and services.